GFSSE_prec_cthk_210.txt.gz
RH
59 62 63 57 54 50 51 55 56 60 62 60 61 64 63 58 55 55 55 54 55 54 55 54 54 52 53 54 50 46 44 44 43 48 50 50 50 51 55 51 45 46 45
58 61 61 56 54 48 46 48 53 56 61 61 61 63 62 60 57 56 55 57 59 63 67 65 56 54 54 58 55 51 45 44 43 44 47 47 52 51 52 51 44 49 42
57 60 60 57 54 46 42 44 47 52 58 60 60 61 63 61 60 59 58 59 63 68 70 69 69 59 62 63 63 63 54 48 44 45 46 49 47 53 47 47 44 43 40
57 57 59 57 56 47 39 43 43 51 55 60 60 60 59 58 58 58 58 62 69 71 71 71 71 73 72 73 75 73 72 61 52 50 48 49 48 44 44 45 45 43 41
59 60 59 58 57 54 38 42 43 46 53 57 57 56 56 58 60 59 62 68 70 70 70 68 69 67 72 73 76 84 84 79 66 61 58 58 58 52 44 61 58 45 43
61 65 62 63 61 62 40 40 42 44 50 55 57 58 57 59 63 63 67 69 69 71 67 66 63 62 66 66 72 77 78 80 82 69 65 63 62 54 54 56 55 54 56
61 66 66 69 69 72 54 42 43 44 49 56 59 60 61 63 67 68 68 70 66 63 63 63 63 70 73 69 69 75 85 81 75 76 68 68 71 64 55 47 47 50 49
60 63 64 69 73 75 63 44 46 47 51 56 59 62 65 66 67 68 68 67 67 65 63 62 62 65 67 70 69 75 82 80 77 72 73 68 73 74 64 53 51 53 51
60 60 61 63 70 75 71 48 47 47 53 55 57 62 65 65 68 70 68 64 60 61 67 74 68 68 67 71 70 66 75 86 81 76 73 70 70 75 72 57 54 54 57
59 64 65 68 66 74 76 60 46 46 52 53 58 62 66 67 68 67 67 65 64 68 74 76 75 73 73 72 72 71 69 78 78 81 75 68 67 69 72 66 68 64 65
65 64 68 71 75 72 76 58 43 46 49 51 58 62 68 64 63 64 77 76 72 83 87 84 80 78 78 76 72 70 68 69 72 70 71 64 63 65 66 69 71 78 81
62 64 73 75 77 72 72 50 48 47 47 48 55 60 60 59 60 71 74 80 83 86 88 87 82 79 77 75 70 62 60 60 62 67 66 67 67 66 65 64 65 66 63
63 58 76 80 80 65 60 54 53 48 46 46 53 55 55 56 64 70 74 83 86 86 87 85 83 84 77 71 67 63 59 54 55 57 59 60 64 65 62 61 63 65 66
63 57 58 63 59 54 51 57 55 52 46 44 49 54 55 56 63 66 75 80 83 85 84 83 85 79 78 72 67 61 63 60 53 53 54 56 57 58 59 60 63 66 66
65 60 63 63 60 58 54 55 53 52 43 39 43 52 55 56 63 69 76 80 80 82 84 83 84 80 81 76 72 67 64 61 56 53 53 53 53 52 53 55 57 59 61
73 70 67 66 64 62 59 59 54 53 43 38 39 52 56 57 60 67 71 77 79 77 81 83 84 79 79 79 75 69 65 59 56 54 54 56 57 56 54 52 55 54 55
72 74 72 71 70 70 69 63 56 53 47 44 40 45 55 54 56 63 66 70 75 74 76 82 81 79 79 79 72 70 67 62 60 58 59 62 65 66 64 63 58 53 49
71 73 74 72 74 72 74 75 72 64 56 49 43 39 42 51 50 53 58 62 68 69 70 68 77 77 78 79 74 71 71 70 68 66 65 64 65 66 66 64 61 58 54
64 64 72 73 73 73 74 74 75 75 70 60 50 40 34 44 46 49 50 54 59 69 75 63 62 65 70 75 78 76 71 74 73 71 69 67 65 66 68 70 69 68 65
60 62 63 69 70 72 74 70 72 77 73 70 64 53 39 33 38 42 43 47 52 63 67 61 57 57 67 67 73 74 70 71 69 69 71 69 66 61 64 67 70 72 74
61 59 62 60 66 70 74 67 70 73 71 71 71 69 63 41 30 33 37 42 48 58 64 60 51 49 61 74 72 69 71 65 67 67 67 63 62 61 63 69 73 73 75
50 58 58 60 62 68 70 68 70 69 71 71 74 77 75 73 63 37 27 34 42 53 55 58 53 51 43 55 61 68 65 64 64 68 63 62 64 66 59 65 67 68 69
50 44 55 59 59 65 69 67 67 67 68 67 71 76 78 77 76 70 40 31 35 47 67 52 50 53 44 44 53 55 61 63 60 62 63 59 68 67 62 66 67 65 62
50 47 41 45 60 59 65 67 68 66 65 65 66 73 76 76 77 79 75 52 31 43 56 47 43 56 47 47 49 51 50 60 61 67 67 64 65 59 60 62 57 55 50
53 51 45 39 41 52 64 62 66 70 69 68 71 74 76 79 79 80 80 79 67 48 53 47 41 40 60 50 48 49 52 51 56 61 66 62 60 55 53 51 51 48 55
54 55 52 44 39 40 44 58 66 68 69 70 71 74 74 77 79 82 85 85 83 80 64 62 53 43 43 46 41 48 56 54 52 52 60 63 61 57 53 52 51 52 55

GFSSE_prec_cthk_216.txt.gz
RH
64 62 55 51 51 52 54 57 54 56 60 61 54 52 54 54 54 55 55 55 55 55 53 49 53 55 48 46 50 47 46 45 44 46 52 54 53 55 48 50 52 50 48
62 61 55 51 48 49 51 56 57 56 60 62 62 58 56 56 53 55 56 59 62 67 64 54 52 51 48 42 43 44 43 45 44 44 48 50 51 46 43 45 43 39 42
64 60 55 51 46 46 48 52 55 56 57 60 62 61 59 59 55 57 58 64 67 68 67 64 55 54 56 52 45 43 42 44 44 46 52 62 54 43 42 39 39 37 38
64 60 58 52 43 46 45 50 53 57 58 60 61 64 62 61 58 58 59 63 70 69 69 66 64 62 63 62 58 51 45 44 48 46 60 65 59 42 38 38 39 39 40
62 63 60 54 45 41 41 46 51 54 58 61 62 65 62 59 59 57 60 63 64 67 69 65 68 70 71 73 70 65 57 50 48 54 57 57 56 41 43 41 39 40 41
61 62 56 54 52 36 39 41 49 54 57 60 62 65 61 58 60 60 62 64 68 69 63 61 61 62 65 70 76 77 72 66 59 63 63 57 61 45 52 47 40 41 41
62 65 56 53 55 38 35 39 48 53 55 59 62 62 61 59 59 62 63 62 68 62 59 60 65 67 66 67 76 76 77 73 77 69 68 67 66 50 51 55 50 45 50
63 68 62 54 57 44 34 38 45 48 51 55 58 59 59 59 59 62 64 64 66 60 60 63 66 67 69 71 76 76 73 73 73 79 73 72 69 61 55 54 50 44 46
66 67 65 63 62 50 37 40 44 47 49 53 56 57 58 61 63 65 67 71 71 71 69 69 69 71 71 69 72 74 75 76 79 78 78 75 67 65 67 50 48 47 45
69 67 67 69 77 66 49 46 52 52 54 55 56 59 62 65 69 73 76 75 75 73 74 78 78 75 72 72 70 71 75 78 82 82 76 76 70 68 71 68 51 48 51
68 67 71 71 74 77 69 57 49 48 52 55 59 62 64 75 81 84 87 83 81 82 86 87 82 78 75 74 71 72 71 77 82 79 80 72 69 67 72 74 65 57 61
70 71 72 72 74 74 74 64 57 52 58 61 64 68 69 76 83 85 84 86 90 94 96 92 87 85 77 75 70 63 71 73 73 77 77 68 64 64 68 72 71 66 74
70 69 72 72 75 73 78 67 57 57 60 59 65 67 67 73 76 82 92 91 94 92 91 92 91 87 82 73 65 62 63 65 68 70 72 66 64 62 61 65 67 65 71
70 73 76 72 77 76 67 59 60 61 59 57 61 61 68 69 76 84 95 95 90 88 93 95 91 83 74 65 63 61 59 60 60 63 62 57 60 61 62 62 62 61 60
65 74 79 75 78 73 57 60 62 62 57 55 57 59 67 66 75 83 90 95 91 89 91 95 91 85 77 68 65 63 60 61 58 57 57 53 53 56 58 58 58 59 60
68 64 77 69 66 62 56 58 60 61 57 51 53 57 57 67 73 82 86 91 91 90 90 91 91 86 83 78 71 64 58 59 60 57 60 60 56 55 55 56 54 54 58
71 70 65 65 62 60 56 54 55 58 56 48 45 49 53 58 61 67 78 84 87 90 87 86 91 89 83 76 69 65 65 64 67 64 66 68 67 64 60 57 56 53 51
70 73 70 66 64 62 59 57 61 60 59 52 45 42 51 58 54 59 69 76 84 75 79 78 80 88 83 82 76 75 74 73 72 70 71 72 73 74 66 65 62 57 54
69 69 75 74 71 68 67 66 67 65 61 55 51 46 46 52 57 55 61 67 67 76 79 70 71 76 86 87 86 81 78 79 79 79 80 75 75 73 78 74 71 72 69
64 67 71 76 75 73 74 74 78 77 72 63 56 53 44 43 46 50 54 54 54 63 73 73 65 63 77 78 81 84 82 82 80 80 79 75 74 70 72 75 74 72 75
66 63 64 70 75 73 72 76 74 76 78 76 67 59 54 48 35 40 49 50 47 50 63 70 62 64 73 78 78 76 78 78 78 76 76 74 71 69 73 76 76 78 76
58 63 64 65 65 68 74 75 75 76 81 79 74 74 72 67 51 35 30 41 44 47 50 60 57 60 60 61 74 75 78 77 75 77 72 71 70 74 67 68 72 71 71
60 55 55 62 63 65 68 75 75 79 81 79 81 78 76 72 69 62 57 44 31 33 45 48 56 54 55 46 52 65 72 79 73 69 71 69 66 70 68 66 67 64 64
59 59 54 49 55 62 65 71 74 78 82 82 79 78 77 76 77 79 72 67 60 39 38 41 52 57 50 56 46 52 54 67 75 71 69 71 72 71 65 64 62 59 60
61 61 60 53 46 50 55 63 67 73 77 78 77 75 71 75 74 77 77 76 76 71 47 39 45 53 52 50 54 53 56 53 56 64 80 70 73 68 63 61 59 58 54
55 60 62 63 53 43 44 49 59 66 69 72 72 72 71 72 76 74 77 76 76 77 76 61 47 49 51 47 41 57 57 54 62 59 62 63 67 72 69 63 58 57 56

GFSSE_prec_cthk_219.txt.gz
RH
63 54 48 45 47 49 51 49 51 55 52 50 50 52 53 54 53 53 55 56 55 52 51 58 56 49 48 52 50 47 45 45 47 49 49 51 52 50 58 59 59 54 50
61 55 50 45 45 50 52 54 54 57 59 56 52 52 53 53 53 55 57 60 66 64 56 51 51 48 47 45 45 44 45 45 48 49 49 48 46 49 48 46 47 46 47
62 56 52 43 44 49 55 56 55 57 60 61 59 57 57 55 56 56 60 62 65 68 68 57 53 54 50 43 43 44 49 45 46 52 57 56 44 41 38 38 39 40 41
63 56 55 43 42 46 52 56 57 58 60 61 61 60 59 58 57 57 60 65 67 67 67 66 60 60 60 55 48 45 45 45 49 57 65 61 48 39 36 37 37 38 38
63 59 55 48 41 45 48 53 56 59 60 61 62 61 61 59 57 57 60 63 66 73 69 68 69 70 73 69 61 54 49 49 50 54 72 68 55 37 38 36 36 37 39
65 66 51 52 41 41 43 52 54 57 59 62 64 63 60 60 58 58 63 67 72 69 63 63 63 63 67 74 78 66 59 52 51 66 66 56 60 41 42 40 38 37 36
66 63 53 52 45 37 41 48 53 56 57 61 65 64 59 60 60 59 65 70 67 66 61 62 64 67 66 70 75 73 71 65 65 73 70 63 58 49 50 47 42 42 44
69 66 55 53 50 35 38 45 49 54 57 60 62 61 58 58 59 62 64 65 65 61 63 65 66 68 69 71 74 74 68 67 71 69 74 76 67 54 52 50 47 43 45
66 67 59 58 55 37 36 41 45 49 52 55 57 58 59 61 65 66 69 74 74 71 66 69 68 69 68 69 70 70 71 71 73 81 76 75 69 59 60 56 50 45 43
65 64 63 66 60 49 44 43 47 52 53 55 57 61 63 65 70 76 76 77 78 80 77 78 73 69 69 69 67 68 73 73 75 77 75 75 74 62 64 61 49 47 47
66 67 65 69 77 64 58 55 59 60 59 59 60 62 64 71 83 86 88 85 78 82 87 84 80 74 73 71 70 69 67 73 79 80 79 75 70 66 65 69 70 55 52
67 71 76 73 76 79 73 64 55 58 59 62 71 77 72 77 83 86 85 86 90 93 92 86 83 82 76 76 70 65 66 82 76 76 84 74 67 62 64 66 70 67 61
76 73 73 79 72 73 79 73 61 58 64 70 71 73 78 73 82 82 87 89 91 91 89 98 92 87 81 77 67 74 69 69 74 71 72 65 60 59 58 62 65 67 61
73 75 78 75 74 74 78 73 64 67 61 65 66 68 76 72 76 98 92 86 87 91 94 90 87 80 72 70 68 65 64 65 65 67 64 61 58 59 57 57 60 64 62
68 83 78 75 75 77 72 63 67 68 62 62 64 65 77 74 76 90 88 79 86 92 94 90 90 80 70 70 67 64 60 69 61 60 57 53 51 54 54 54 56 57 58
66 81 82 72 76 76 58 63 66 65 67 59 59 65 61 71 72 81 93 93 94 87 89 94 87 85 82 78 70 63 62 62 63 61 61 57 53 50 50 51 51 52 53
72 67 72 68 66 62 60 59 59 64 59 56 55 57 59 61 64 65 79 78 82 90 82 87 88 84 79 76 69 67 64 65 70 67 64 71 64 58 56 54 52 50 49
76 71 69 64 64 61 62 56 57 57 58 58 50 53 53 58 64 60 70 77 82 77 77 83 83 82 81 76 75 75 74 73 70 72 73 75 74 71 73 63 59 56 53
68 74 72 70 67 66 60 60 59 62 59 60 52 50 47 54 62 55 64 75 68 73 80 74 75 77 86 81 84 79 77 79 78 78 79 76 73 73 76 76 72 70 70
66 66 73 74 72 70 67 66 70 73 70 64 57 54 51 45 56 57 58 56 55 60 72 88 69 62 77 77 81 80 82 81 79 80 77 72 74 65 73 74 73 70 71
63 58 61 68 69 70 65 65 69 73 74 73 67 62 56 46 45 43 48 56 51 51 59 66 69 71 67 80 82 77 77 76 79 73 74 74 75 72 75 80 73 77 79
60 62 58 58 58 63 65 68 72 76 72 81 76 69 65 64 61 43 39 46 51 53 56 55 62 63 62 79 68 75 89 81 73 71 68 71 68 70 71 68 72 72 72
58 55 57 57 59 59 60 65 68 71 74 79 75 72 70 69 69 63 55 47 47 38 46 54 53 58 56 66 45 60 73 79 75 78 65 66 65 63 65 64 62 64 60
59 61 56 48 52 55 58 61 64 69 71 74 75 74 74 72 71 70 71 69 66 57 52 46 46 52 68 59 68 57 49 64 72 80 69 74 69 70 70 62 57 59 53
64 66 63 61 49 46 46 57 63 64 67 70 75 72 71 70 78 73 78 77 73 71 68 44 46 52 58 55 60 59 59 53 53 56 73 82 82 77 74 68 60 57 53
58 61 64 67 64 57 49 44 47 62 64 64 65 69 69 68 68 69 71 77 76 81 78 78 64 42 40 54 53 49 50 59 62 52 65 68 81 71 86 79 64 59 74

GFSSE_prec_cthk_222.txt.gz
RH
55 42 41 42 44 47 46 48 49 48 48 50 50 51 52 50 51 53 56 54 50 51 58 53 48 49 52 47 45 46 46 47 46 45 44 45 51 54 58 57 49 51 52
53 46 40 42 44 47 49 50 52 53 52 51 51 52 52 52 52 55 60 68 63 53 48 48 44 46 45 43 42 42 44 47 46 46 43 44 46 46 49 50 45 46 47
54 51 43 42 45 47 52 53 55 59 60 56 54 55 54 53 54 56 59 64 69 67 56 50 51 45 42 42 44 43 42 47 54 58 49 43 41 38 38 39 39 40 42
53 52 49 43 45 49 52 55 57 58 61 60 58 58 57 54 54 57 62 63 64 65 63 57 54 55 51 45 44 44 46 54 64 75 63 45 39 35 34 35 34 36 37
54 53 50 42 43 47 51 55 57 58 60 60 59 59 57 54 55 57 60 63 65 69 65 64 64 69 66 58 49 48 48 57 70 73 81 56 40 36 34 34 34 35 34
56 56 52 46 41 42 48 52 55 57 60 60 61 61 58 56 55 56 61 67 69 70 60 60 60 64 74 77 61 53 53 55 64 67 67 61 46 39 39 36 34 35 32
60 56 50 48 38 39 46 50 53 55 59 60 61 62 60 58 56 58 62 61 61 59 57 59 62 64 66 75 70 62 56 54 59 64 67 54 53 46 43 42 40 40 41
60 58 50 51 42 35 41 46 50 54 57 59 61 60 60 61 61 63 61 59 60 57 60 61 63 65 68 70 70 67 65 62 66 68 73 63 62 50 50 46 44 42 45
67 63 55 49 46 34 36 41 46 50 54 58 58 57 58 61 64 66 70 70 67 66 63 62 64 64 65 66 66 67 65 64 66 69 73 73 68 63 53 53 49 46 45
68 60 56 53 46 36 35 40 44 47 51 54 57 60 60 65 75 81 76 73 71 70 71 68 67 67 64 62 61 62 64 65 68 75 76 76 76 67 58 57 52 45 45
66 60 59 62 53 43 44 44 51 54 55 56 59 61 64 74 86 90 90 83 78 73 73 71 69 67 65 63 63 60 62 67 73 77 71 74 74 71 64 61 61 54 48
65 66 62 66 66 68 71 60 49 49 53 56 70 77 74 81 84 86 85 86 84 84 80 76 74 71 66 62 60 59 64 86 74 73 87 76 69 65 68 65 66 66 62
66 70 73 66 74 78 82 71 56 51 57 67 73 66 71 90 97 87 92 91 89 88 85 87 79 75 75 60 62 75 64 64 66 66 64 63 60 58 57 62 66 67 65
69 66 64 71 71 78 72 78 67 66 65 71 67 67 64 82 81 78 86 91 91 91 89 86 76 72 70 63 57 60 53 66 64 87 63 59 59 56 56 55 57 59 61
66 80 74 71 69 68 77 68 64 61 64 73 61 65 78 79 84 82 89 89 92 94 93 87 80 70 64 59 54 52 55 52 56 73 55 55 54 53 53 52 53 55 58
61 78 85 83 62 65 66 57 58 63 61 63 60 64 66 73 83 85 90 79 83 86 88 81 80 84 75 64 59 56 55 60 54 62 59 56 55 53 49 49 46 47 49
65 65 76 68 63 65 56 56 58 67 63 56 57 59 55 61 71 72 83 89 79 81 90 88 86 78 74 68 63 61 61 64 63 63 60 63 57 61 54 49 48 47 45
68 65 61 63 65 56 57 54 53 58 58 58 53 55 49 47 59 57 78 77 74 97 78 89 82 77 90 67 68 70 69 71 69 69 69 71 68 67 68 64 56 56 53
68 70 70 62 61 59 56 54 49 61 62 54 57 49 46 45 50 51 62 67 73 73 86 80 74 73 79 85 77 79 77 78 77 74 73 72 65 65 68 61 68 69 68
59 67 69 65 65 67 63 58 59 63 65 63 59 48 44 43 40 45 51 53 54 52 65 66 73 62 75 77 79 76 78 83 81 77 75 73 68 70 63 68 72 69 66
56 61 60 67 64 70 64 61 61 66 66 68 65 60 52 47 42 36 36 52 55 46 49 51 61 81 76 83 80 77 92 78 81 80 70 67 74 69 70 72 76 72 80
47 54 51 53 56 60 62 62 63 70 70 66 68 65 60 56 52 51 35 35 46 47 49 45 47 61 68 82 58 76 70 84 73 76 70 71 64 67 80 66 69 65 63
50 48 44 45 51 54 55 59 60 66 69 67 70 70 66 64 61 62 56 47 37 39 32 39 48 47 55 55 67 56 59 74 88 73 81 74 88 68 85 62 60 60 59
58 59 59 51 41 40 49 58 61 58 62 68 71 74 72 73 66 69 64 60 57 57 46 42 50 41 45 54 72 68 65 53 63 67 79 74 73 73 72 76 66 63 51
53 56 60 63 64 57 51 44 53 61 63 66 68 73 73 70 69 67 68 67 71 68 60 53 47 36 36 46 47 49 51 51 59 72 64 65 66 75 89 87 71 70 70
55 58 60 62 66 66 64 60 50 50 53 62 64 69 75 69 68 65 64 64 70 73 70 70 67 57 48 40 39 44 47 47 50 61 55 47 69 69 68 66 70 86 70